Aeroporto :
LOGIN :

Iscrizione | Disclaimer

   EN    FR    IT 

 










Sommario :    VFR   VFR Marginale   IFR   IFR Intensivo   IFR Molto Intensivo
Visibilità : 
Base nubi : 
>= 8 km
>= 3000ft
5 / 8 km
1000 / 3000 ft
1500m / 5 km
500 / 1000 ft
800 / 1500m
200 / 500 ft
< 800m
< 200 ft
Simboli :   Temporali  Nebbia  Neve Forte  Precipitazioni Forti  Vento > 20 kt
SIGMETs :   Varie  Temporali  Ghiacco  Turbolenza  Onda orograficha  Ceneri Vulcaniche






- Altitudine del aeroporto : 1830 ft


EBLB - Butgenbach Elsenborn

ULTIMO METAR :
  • 100525Z AUTO VRB01KT 9999 NCD 17/13 Q1018 BLU

METARs OBSOLETI :
  • 100455Z AUTO VRB01KT 9999 NCD 15/12 Q1018 BLU
  • 100425Z AUTO VRB02KT 9999 NCD 15/12 Q1017 BLU
  • 100355Z AUTO VRB02KT 9999 NCD 16/12 Q1017 BLU
  • 100325Z AUTO VRB02KT 9999 NCD 17/13 Q1017 BLU
  • 100255Z AUTO 00000KT 9999 NCD 16/13 Q1017 BLU

Previsioni scadute.



MetMap, La meteo Aeronautica in un colpo d'occhio ! - Copyright ORBIFLY Dicembre 2007 - Disclaimer

ORBIFLY MET'MAP TEAM :

Programmazione e sviluppo : Alexandra Zaïnal
Concezione : Baudouin d'Aumeries
Aiuto per la programmazione : Marc-Olivier Méhu
Supporto tecnico e logistico : Manuel Goepfert
Aiuto per la traduzione : Arnaldo La Scala

Contatto : metmap@orbifly.com




FONTI E CREDITI :

   NOAA